User: anonymous   Login
Location: Bowman Observatory
(41.0326°N, 73.6210°W)
Time: 01:03:17
(UTC-04:00)
Language:

Cosmos 2297 - Orbit

View from above orbital plane
View from above orbital plane
View from above satellite
View from above satellite

Ground track
Ground track

The orbit data is extracted from the following two-line orbital elements,

1 23404U 94077A   16241.79680389  .00000002  00000-0  26385-4 0  9994
2 23404  71.0142 185.0447 0017308 238.3294 121.6140 14.13483880122751
Epoch (UTC): 28 August 2016 19:07:23
Eccentricity: 0.0017308
inclination: 71.0142°
perigee height: 835 km
apogee height: 860 km
right ascension of ascending node: 185.0447°
argument of perigee: 238.3294°
revolutions per day: 14.13483880
mean anomaly at epoch: 121.6140°
orbit number at epoch: 12275

The dashed part of the orbit path shows where the satellite is in the earth's shadow,  

DLR